This demonstration page uses our WeatherBlox Daily Observations layout. Learn more.

Left ArrowRight Arrow

41.12389, -100.76542

Hourly Observations for August 13, 2022

Temp ( °F °C ) Dew Point ( °F °C ) Humidity (%) Winds ( mph kmh ) Pressure ( in mb ) Visibility ( mi km ) Precip ( " mm )
12:53 am 00:53 Clear 83 28.3 50 10 32 32 Calm 29.93 1014 10 16 0.00 0.00
1:53 am 01:53 Clear 69 20.6 54 12.2 59 59 Calm 29.95 1014 10 16 0.00 0.00
2:53 am 02:53 Clear 69 20.6 55 12.8 61 61 Calm 29.95 1014 10 16 0.00 0.00
3:53 am 03:53 Clear 66 18.9 56 13.3 70 70 Calm 29.95 1014 10 16 0.00 0.00
4:53 am 04:53 Clear 64 17.8 56 13.3 75 75 ESE 3 6 29.96 1015 10 16 0.00 0.00
5:53 am 05:53 Clear 63 17.2 55 12.8 75 75 Calm 29.97 1015 10 16 0.00 0.00
6:53 am 06:53 Sunny 67 19.4 61 16.1 81 81 Calm 29.99 1016 10 16 0.00 0.00
7:53 am 07:53 Sunny 72 22.2 66 18.9 82 82 NNE 10 17 29.99 1016 10 16 0.00 0.00
8:53 am 08:53 Sunny 75 23.9 67 19.4 76 76 NE 9 15 30.00 1016 10 16 0.00 0.00
9:53 am 09:53 Sunny 80 26.7 68 20 67 67 NE 10 17 30.01 1016 10 16 0.00 0.00
10:53 am 10:53 Sunny 86 30 64 17.8 48 48 NE 12 19 30.00 1016 10 16 0.00 0.00
11:53 am 11:53 Sunny 91 32.8 61 16.1 37 37 E 8 13 29.99 1016 10 16 0.00 0.00
12:53 pm 12:53 Sunny 93 33.9 60 15.6 34 34 ENE 12 19 29.97 1015 10 16 0.00 0.00
1:53 pm 13:53 Sunny 95 35 60 15.6 32 32 SE 15 24 29.97 1015 10 16 0.00 0.00
2:53 pm 14:53 Sunny 95 35 64 17.8 36 36 SSE 10 17 29.97 1015 10 16 0.00 0.00
3:53 pm 15:53 Sunny 96 35.6 61 16.1 31 31 SE 9 15 29.95 1014 10 16 0.00 0.00
4:53 pm 16:53 Sunny 96 35.6 62 16.7 33 33 SE 13 20 29.93 1014 10 16 0.00 0.00
5:53 pm 17:53 Sunny 94 34.4 62 16.7 35 35 SE 15 24 29.93 1013 10 16 0.00 0.00
6:53 pm 18:53 Sunny 92 33.3 64 17.8 40 40 SE 14 22 29.91 1013 10 16 0.00 0.00
7:53 pm 19:53 Sunny 87 30.6 65 18.3 48 48 ESE 13 20 29.92 1013 10 16 0.00 0.00
8:53 pm 20:53 Clear 82 27.8 64 17.8 55 55 E 9 15 29.94 1014 10 16 0.00 0.00
9:53 pm 21:53 Clear 81 27.2 64 17.8 57 57 E 16 26 29.95 1014 10 16 0.00 0.00
10:53 pm 22:53 Clear 78 25.6 65 18.3 64 64 E 14 22 29.96 1015 10 16 0.00 0.00
11:53 pm 23:53 Clear 72 22.2 66 18.9 82 82 ESE 9 15 29.96 1015 10 16 0.00 0.00

Powered by AerisWeather